JFA54Z LFTZ-EGLF

Flight info

Callsign JFA54Z
Flight time 1h 49m
Altitude 34000
Route OKTET UM733 IDAVO DCT SIZZA UM733 SUBIP M8 ELDAX
Aircraft PC24/M-SBDGIRWY/LB2

Departure

Time 2026-04-25 10:21
Airport La Môle Airport (LFTZ)

Arrival

Time 2026-04-25 12:10
Airport Farnborough Airport (EGLF)
Time Latitude Longitude Altitude Speed Heading
2026-04-25 10:14 43.20400 6.47624 72 ft 0 kts 333°
2026-04-25 10:16 43.20392 6.47629 55 ft 2 kts 333°
2026-04-25 10:17 43.20378 6.47626 52 ft 2 kts 60°
2026-04-25 10:17 43.20378 6.47624 52 ft 0 kts 60°
2026-04-25 10:17 43.20378 6.47625 52 ft 1 kts 60°
2026-04-25 10:18 43.20403 6.47700 57 ft 10 kts 73°
2026-04-25 10:18 43.20401 6.47765 52 ft 8 kts 122°
2026-04-25 10:18 43.20430 6.47897 58 ft 23 kts 64°
2026-04-25 10:18 43.20529 6.48166 52 ft 39 kts 60°
2026-04-25 10:19 43.20669 6.48511 51 ft 40 kts 60°
2026-04-25 10:19 43.20783 6.48775 55 ft 21 kts 58°
2026-04-25 10:19 43.20788 6.48822 55 ft 1 kts 169°
2026-04-25 10:19 43.20779 6.48800 53 ft 8 kts 249°
2026-04-25 10:20 43.20770 6.48775 53 ft 0 kts 241°
2026-04-25 10:20 43.20728 6.48663 49 ft 48 kts 243°
2026-04-25 10:20 43.20438 6.47944 56 ft 120 kts 240°
2026-04-25 10:21 43.20125 6.46744 455 ft 141 kts 269°
2026-04-25 10:21 43.20447 6.45482 1215 ft 142 kts 310°
2026-04-25 10:21 43.21390 6.44953 1934 ft 165 kts
2026-04-25 10:21 43.22321 6.45909 2682 ft 180 kts 62°
2026-04-25 10:22 43.22889 6.47694 3011 ft 223 kts 57°
2026-04-25 10:22 43.23609 6.48750 3377 ft 239 kts 34°
2026-04-25 10:22 43.25257 6.49435 3909 ft 264 kts 359°
2026-04-25 10:22 43.27161 6.49287 4478 ft 285 kts 355°
2026-04-25 10:23 43.29225 6.49210 5029 ft 308 kts 359°
2026-04-25 10:23 43.31273 6.49368 5520 ft 278 kts
2026-04-25 10:23 43.33649 6.49609 6135 ft 242 kts
2026-04-25 10:23 43.35373 6.49687 6617 ft 258 kts
2026-04-25 10:24 43.36606 6.49746 6939 ft 266 kts
2026-04-25 10:24 43.38491 6.49871 7439 ft 275 kts
2026-04-25 10:24 43.40420 6.49998 7938 ft 279 kts
2026-04-25 10:24 43.42362 6.50128 8440 ft 281 kts
2026-04-25 10:25 43.44296 6.50248 8944 ft 283 kts
2026-04-25 10:25 43.46270 6.50367 9461 ft 286 kts
2026-04-25 10:25 43.48267 6.50494 9980 ft 288 kts
2026-04-25 10:25 43.50276 6.50625 10459 ft 291 kts
2026-04-25 10:26 43.52354 6.50755 10949 ft 307 kts
2026-04-25 10:26 43.54537 6.50892 11450 ft 321 kts
2026-04-25 10:26 43.56798 6.51036 11968 ft 329 kts
2026-04-25 10:26 43.59097 6.51183 12474 ft 332 kts
2026-04-25 10:27 43.61421 6.51330 12991 ft 337 kts
2026-04-25 10:27 43.63771 6.51480 13515 ft 339 kts
2026-04-25 10:27 43.66136 6.51632 14021 ft 342 kts
2026-04-25 10:27 43.68519 6.51783 14498 ft 343 kts
2026-04-25 10:28 43.70913 6.51935 14970 ft 345 kts
2026-04-25 10:28 43.73320 6.52088 15452 ft 348 kts
2026-04-25 10:28 43.75747 6.52245 15953 ft 350 kts
2026-04-25 10:28 43.78187 6.52399 16446 ft 352 kts
2026-04-25 10:29 43.80647 6.52557 16957 ft 356 kts
2026-04-25 10:29 43.83138 6.52716 17482 ft 359 kts
2026-04-25 10:29 43.85642 6.52878 18005 ft 362 kts
2026-04-25 10:29 43.88174 6.53040 18518 ft 365 kts
2026-04-25 10:30 43.90718 6.53203 18982 ft 367 kts
2026-04-25 10:30 43.93278 6.53367 19454 ft 369 kts
2026-04-25 10:30 43.95852 6.53531 19931 ft 372 kts
2026-04-25 10:30 43.98410 6.53699 20411 ft 373 kts
2026-04-25 10:31 44.01015 6.53864 20911 ft 377 kts
2026-04-25 10:31 44.03643 6.54034 21415 ft 379 kts
2026-04-25 10:31 44.06285 6.54208 21925 ft 382 kts
2026-04-25 10:31 44.08955 6.54377 22446 ft 385 kts
2026-04-25 10:32 44.11637 6.54551 22981 ft 387 kts
2026-04-25 10:32 44.14341 6.54726 23520 ft 390 kts
2026-04-25 10:32 44.17044 6.54900 23996 ft 388 kts
2026-04-25 10:32 44.19748 6.55076 24456 ft 388 kts
2026-04-25 10:33 44.22437 6.55251 24919 ft 387 kts
2026-04-25 10:33 44.25125 6.55426 25393 ft 386 kts
2026-04-25 10:33 44.27812 6.55599 25872 ft 386 kts
2026-04-25 10:33 44.30491 6.55774 26363 ft 385 kts
2026-04-25 10:34 44.33160 6.55947 26864 ft 383 kts
2026-04-25 10:34 44.35822 6.56122 27370 ft 383 kts
2026-04-25 10:34 44.38483 6.56295 27883 ft 382 kts
2026-04-25 10:34 44.41133 6.56468 28409 ft 381 kts
2026-04-25 10:35 44.43777 6.56641 28942 ft 380 kts
2026-04-25 10:35 44.46415 6.56601 29482 ft 379 kts 354°
2026-04-25 10:35 44.48989 6.55830 30029 ft 379 kts 342°
2026-04-25 10:35 44.51400 6.54375 30518 ft 377 kts 331°
2026-04-25 10:36 44.53617 6.52452 31004 ft 372 kts 328°
2026-04-25 10:36 44.55791 6.50539 31486 ft 365 kts 328°
2026-04-25 10:36 44.57926 6.48664 31974 ft 360 kts 328°
2026-04-25 10:36 44.60031 6.46807 32467 ft 354 kts 328°
2026-04-25 10:37 44.62095 6.44982 32975 ft 348 kts 328°
2026-04-25 10:37 44.64126 6.43189 33482 ft 341 kts 328°
2026-04-25 10:37 44.66116 6.41432 33953 ft 336 kts 328°
2026-04-25 10:37 44.68108 6.39668 34077 ft 342 kts 327°
2026-04-25 10:38 44.70145 6.37863 34082 ft 351 kts 328°
2026-04-25 10:38 44.74338 6.34148 34096 ft 366 kts 327°
2026-04-25 10:39 44.78735 6.30243 34107 ft 381 kts 327°
2026-04-25 10:39 44.83292 6.26186 34108 ft 394 kts 327°
2026-04-25 10:40 44.87992 6.21998 34109 ft 404 kts 327°
2026-04-25 10:40 44.92795 6.17707 34113 ft 413 kts 327°
2026-04-25 10:41 44.97684 6.13332 34117 ft 419 kts 327°
2026-04-25 10:41 45.02629 6.08895 34115 ft 421 kts 327°
2026-04-25 10:42 45.07533 6.04489 34108 ft 418 kts 327°
2026-04-25 10:42 45.12456 6.00055 34111 ft 420 kts 327°
2026-04-25 10:43 45.17382 5.95607 34113 ft 420 kts 327°
2026-04-25 10:43 45.22302 5.91160 34109 ft 418 kts 327°
2026-04-25 10:44 45.27208 5.86712 34110 ft 420 kts 327°
2026-04-25 10:44 45.32152 5.82222 34115 ft 423 kts 327°
2026-04-25 10:45 45.37093 5.77727 34120 ft 421 kts 327°
2026-04-25 10:45 45.42019 5.73233 34120 ft 421 kts 326°
2026-04-25 10:46 45.46934 5.68742 34123 ft 424 kts 326°
2026-04-25 10:46 45.51910 5.64186 34086 ft 425 kts 326°
2026-04-25 10:47 45.56861 5.59639 34113 ft 423 kts 326°
2026-04-25 10:47 45.61826 5.55075 34111 ft 425 kts 326°
2026-04-25 10:48 45.66807 5.50482 34111 ft 427 kts 326°
2026-04-25 10:48 45.71809 5.45863 34116 ft 428 kts 326°
2026-04-25 10:49 45.76805 5.41237 34117 ft 427 kts 326°
2026-04-25 10:49 45.81796 5.36607 34117 ft 428 kts 326°
2026-04-25 10:50 45.86801 5.31953 34119 ft 429 kts 326°
2026-04-25 10:50 45.91825 5.27273 34118 ft 431 kts 326°
2026-04-25 10:51 45.96831 5.22599 34113 ft 428 kts 326°
2026-04-25 10:51 46.01841 5.17907 34113 ft 432 kts 326°
2026-04-25 10:52 46.06881 5.13183 34112 ft 431 kts 326°
2026-04-25 10:52 46.11902 5.08461 34109 ft 431 kts 326°
2026-04-25 10:53 46.16943 5.03712 34113 ft 434 kts 326°
2026-04-25 10:53 46.22009 4.98932 34116 ft 435 kts 325°
2026-04-25 10:54 46.27306 4.94720 34108 ft 436 kts 336°
2026-04-25 10:54 46.32875 4.91166 34116 ft 438 kts 335°
2026-04-25 10:55 46.38465 4.87595 34111 ft 440 kts 336°
2026-04-25 10:55 46.44065 4.84010 34114 ft 441 kts 335°
2026-04-25 10:56 46.49676 4.80405 34115 ft 442 kts 335°
2026-04-25 10:56 46.55268 4.76810 34113 ft 443 kts 335°
2026-04-25 10:57 46.60881 4.73189 34108 ft 440 kts 335°
2026-04-25 10:57 46.66490 4.69565 34111 ft 443 kts 335°
2026-04-25 10:58 46.72135 4.65907 34113 ft 444 kts 335°
2026-04-25 10:58 46.77772 4.62248 34111 ft 443 kts 335°
2026-04-25 10:59 46.83400 4.58585 34109 ft 443 kts 335°
2026-04-25 10:59 46.89043 4.54904 34106 ft 445 kts 335°
2026-04-25 11:00 46.94714 4.51197 34110 ft 446 kts 335°
2026-04-25 11:00 47.00364 4.47494 34105 ft 444 kts 335°
2026-04-25 11:01 47.06005 4.43789 34110 ft 444 kts 335°
2026-04-25 11:01 47.11648 4.40074 34108 ft 445 kts 335°
2026-04-25 11:02 47.17310 4.36338 34110 ft 447 kts 335°
2026-04-25 11:02 47.22989 4.32581 34116 ft 447 kts 335°
2026-04-25 11:03 47.28632 4.28840 34100 ft 443 kts 335°
2026-04-25 11:03 47.34291 4.25080 34107 ft 448 kts 335°
2026-04-25 11:04 47.39914 4.21332 34113 ft 445 kts 335°
2026-04-25 11:04 47.45546 4.17574 34110 ft 443 kts 335°
2026-04-25 11:05 47.51164 4.13811 34115 ft 444 kts 335°
2026-04-25 11:05 47.56566 4.09422 34115 ft 443 kts 323°
2026-04-25 11:06 47.61615 4.04180 34130 ft 442 kts 324°
2026-04-25 11:06 47.66621 3.98971 34126 ft 438 kts 323°
2026-04-25 11:07 47.71619 3.93760 34128 ft 440 kts 323°
2026-04-25 11:07 47.76605 3.88551 34138 ft 440 kts 323°
2026-04-25 11:08 47.81596 3.83322 34138 ft 438 kts 323°
2026-04-25 11:08 47.86562 3.78108 34133 ft 436 kts 323°
2026-04-25 11:09 47.91513 3.72897 34137 ft 436 kts 323°
2026-04-25 11:09 47.96470 3.67667 34141 ft 436 kts 323°
2026-04-25 11:10 48.01408 3.62445 34139 ft 434 kts 323°
2026-04-25 11:10 48.06317 3.57240 34140 ft 431 kts 323°
2026-04-25 11:11 48.11201 3.52050 34148 ft 430 kts 323°
2026-04-25 11:11 48.16074 3.46859 34145 ft 429 kts 323°
2026-04-25 11:12 48.20116 3.42545 34149 ft 428 kts 323°
2026-04-25 11:12 48.25747 3.36519 34144 ft 427 kts 323°
2026-04-25 11:13 48.30579 3.31335 34151 ft 428 kts 323°
2026-04-25 11:13 48.34603 3.27009 34157 ft 427 kts 322°
2026-04-25 11:14 48.39419 3.21821 34149 ft 424 kts 323°
2026-04-25 11:14 48.44194 3.16664 34148 ft 421 kts 322°
2026-04-25 11:15 48.48973 3.11489 34153 ft 424 kts 322°
2026-04-25 11:15 48.53745 3.06312 34155 ft 421 kts 322°
2026-04-25 11:16 48.60845 2.98583 34163 ft 420 kts 322°
2026-04-25 11:16 48.65578 2.93418 34160 ft 419 kts 322°
2026-04-25 11:17 48.69470 2.89160 34159 ft 418 kts 322°
2026-04-25 11:17 48.73635 2.84594 34156 ft 417 kts 322°
2026-04-25 11:18 48.78319 2.79448 34160 ft 415 kts 322°
2026-04-25 11:18 48.82994 2.74299 34172 ft 416 kts 322°
2026-04-25 11:19 48.87677 2.69131 34176 ft 416 kts 322°
2026-04-25 11:19 48.92347 2.63965 34180 ft 415 kts 322°
2026-04-25 11:20 48.97002 2.58802 34181 ft 413 kts 322°
2026-04-25 11:20 49.01626 2.53662 34181 ft 412 kts 322°
2026-04-25 11:21 49.06270 2.48488 34187 ft 415 kts 322°
2026-04-25 11:21 49.10913 2.43303 34180 ft 413 kts 322°
2026-04-25 11:22 49.14758 2.38998 34171 ft 412 kts 322°
2026-04-25 11:22 49.20153 2.32947 34175 ft 412 kts 322°
2026-04-25 11:23 49.24771 2.27751 34172 ft 411 kts 322°
2026-04-25 11:23 49.29355 2.22583 34172 ft 407 kts 322°
2026-04-25 11:24 49.33918 2.17425 34182 ft 408 kts 322°
2026-04-25 11:24 49.38488 2.12248 34182 ft 408 kts 322°
2026-04-25 11:25 49.43006 2.07118 34182 ft 406 kts 322°
2026-04-25 11:25 49.47574 2.01918 34183 ft 406 kts 322°
2026-04-25 11:26 49.52079 1.96779 34182 ft 406 kts 322°
2026-04-25 11:26 49.56613 1.91595 34180 ft 405 kts 322°
2026-04-25 11:27 49.61117 1.86432 34178 ft 402 kts 322°
2026-04-25 11:27 49.64882 1.82108 34179 ft 403 kts 321°
2026-04-25 11:28 49.70100 1.76097 34175 ft 402 kts 321°
2026-04-25 11:28 49.74578 1.70929 34177 ft 403 kts 321°
2026-04-25 11:29 49.79073 1.65729 34178 ft 403 kts 321°
2026-04-25 11:29 49.83553 1.60530 34178 ft 402 kts 321°
2026-04-25 11:30 49.88024 1.55336 34184 ft 402 kts 321°
2026-04-25 11:30 49.90265 1.52721 33969 ft 407 kts 321°
2026-04-25 11:30 49.92527 1.50080 33437 ft 405 kts 321°
2026-04-25 11:31 49.94767 1.47473 32905 ft 400 kts 321°
2026-04-25 11:31 49.96956 1.44917 32386 ft 387 kts 320°
2026-04-25 11:31 49.99064 1.42450 31895 ft 373 kts 320°
2026-04-25 11:31 50.01107 1.40054 31411 ft 364 kts 320°
2026-04-25 11:32 50.03119 1.37691 30939 ft 363 kts 320°
2026-04-25 11:32 50.05148 1.35305 30467 ft 368 kts 320°
2026-04-25 11:32 50.07196 1.32896 29945 ft 371 kts 320°
2026-04-25 11:32 50.09259 1.30478 29449 ft 371 kts 320°
2026-04-25 11:33 50.11324 1.28046 28958 ft 373 kts 320°
2026-04-25 11:33 50.13400 1.25591 28464 ft 376 kts 320°
2026-04-25 11:33 50.15492 1.23123 27970 ft 378 kts 320°
2026-04-25 11:33 50.17590 1.20644 27468 ft 377 kts 320°
2026-04-25 11:34 50.19674 1.18182 26972 ft 374 kts 320°
2026-04-25 11:34 50.21738 1.15734 26481 ft 372 kts 320°
2026-04-25 11:34 50.23791 1.13299 25998 ft 369 kts 320°
2026-04-25 11:34 50.25831 1.10878 25514 ft 367 kts 320°
2026-04-25 11:35 50.27857 1.08470 25036 ft 365 kts 320°
2026-04-25 11:35 50.29870 1.06075 24557 ft 362 kts 320°
2026-04-25 11:35 50.31869 1.03693 24080 ft 360 kts 320°
2026-04-25 11:35 50.33856 1.01324 23580 ft 358 kts 320°
2026-04-25 11:36 50.35827 0.98973 23099 ft 354 kts 320°
2026-04-25 11:36 50.37774 0.96645 22637 ft 351 kts 320°
2026-04-25 11:36 50.39707 0.94334 22175 ft 349 kts 320°
2026-04-25 11:36 50.41629 0.92026 21719 ft 347 kts 320°
2026-04-25 11:37 50.43349 0.89416 21258 ft 343 kts 308°
2026-04-25 11:37 50.44691 0.86355 20811 ft 340 kts 297°
2026-04-25 11:37 50.45619 0.82975 20369 ft 335 kts 286°
2026-04-25 11:37 50.46269 0.79487 19924 ft 332 kts 284°
2026-04-25 11:38 50.46928 0.76024 19491 ft 331 kts 285°
2026-04-25 11:38 50.47584 0.72572 19057 ft 329 kts 284°
2026-04-25 11:38 50.48228 0.69135 18625 ft 327 kts 284°
2026-04-25 11:38 50.48834 0.65767 18309 ft 320 kts 281°
2026-04-25 11:39 50.49170 0.62321 18295 ft 323 kts 276°
2026-04-25 11:39 50.49500 0.58835 18295 ft 322 kts 277°
2026-04-25 11:39 50.49846 0.55356 18287 ft 323 kts 277°
2026-04-25 11:39 50.50177 0.51860 18275 ft 323 kts 276°
2026-04-25 11:40 50.50501 0.48373 18273 ft 323 kts 276°
2026-04-25 11:40 50.50827 0.44890 18262 ft 322 kts 276°
2026-04-25 11:40 50.51155 0.41402 18258 ft 323 kts 276°
2026-04-25 11:40 50.51482 0.37900 18252 ft 325 kts 276°
2026-04-25 11:41 50.51808 0.34392 18252 ft 324 kts 276°
2026-04-25 11:41 50.52133 0.30885 18246 ft 324 kts 276°
2026-04-25 11:41 50.52457 0.27376 18228 ft 324 kts 276°
2026-04-25 11:41 50.52778 0.23880 18229 ft 323 kts 276°
2026-04-25 11:42 50.53099 0.20389 18229 ft 323 kts 276°
2026-04-25 11:42 50.53417 0.16900 18229 ft 323 kts 276°
2026-04-25 11:42 50.53736 0.13399 18230 ft 323 kts 276°
2026-04-25 11:42 50.54054 0.09901 18232 ft 323 kts 276°
2026-04-25 11:43 50.54371 0.06398 18233 ft 324 kts 276°
2026-04-25 11:43 50.54687 0.02889 18225 ft 324 kts 276°
2026-04-25 11:43 50.55002 -0.00619 18266 ft 324 kts 277°
2026-04-25 11:43 50.55314 -0.04089 18067 ft 320 kts 277°
2026-04-25 11:44 50.55624 -0.07578 17430 ft 321 kts 277°
2026-04-25 11:44 50.55927 -0.10979 16850 ft 306 kts 277°
2026-04-25 11:44 50.56215 -0.14223 16323 ft 293 kts 277°
2026-04-25 11:44 50.56493 -0.17372 15813 ft 289 kts 277°
2026-04-25 11:45 50.56675 -0.19445 15481 ft 289 kts 277°
2026-04-25 11:45 50.57042 -0.23623 14832 ft 288 kts 277°
2026-04-25 11:45 50.57314 -0.26740 14359 ft 287 kts 277°
2026-04-25 11:45 50.57587 -0.29850 13867 ft 286 kts 277°
2026-04-25 11:46 50.57855 -0.32947 13343 ft 285 kts 277°
2026-04-25 11:46 50.58122 -0.36022 12822 ft 283 kts 277°
2026-04-25 11:46 50.58432 -0.39044 12346 ft 278 kts 284°
2026-04-25 11:46 50.59151 -0.41869 11841 ft 278 kts 297°
2026-04-25 11:47 50.60268 -0.44337 11423 ft 275 kts 311°
2026-04-25 11:47 50.61603 -0.46447 11221 ft 272 kts 314°
2026-04-25 11:47 50.62944 -0.48578 10995 ft 275 kts 314°
2026-04-25 11:47 50.64297 -0.50717 10770 ft 275 kts 314°
2026-04-25 11:48 50.65648 -0.52852 10545 ft 275 kts 314°
2026-04-25 11:48 50.66994 -0.54981 10310 ft 274 kts 314°
2026-04-25 11:48 50.68344 -0.57098 10078 ft 273 kts 317°
2026-04-25 11:48 50.69911 -0.58775 9837 ft 272 kts 331°
2026-04-25 11:49 50.71562 -0.60148 9612 ft 272 kts 331°
2026-04-25 11:49 50.73225 -0.61572 9383 ft 272 kts 331°
2026-04-25 11:49 50.74889 -0.62988 9160 ft 271 kts 331°
2026-04-25 11:49 50.76547 -0.64393 8926 ft 270 kts 331°
2026-04-25 11:50 50.78197 -0.65794 8712 ft 269 kts 331°
2026-04-25 11:50 50.79848 -0.67201 8489 ft 270 kts 331°
2026-04-25 11:50 50.81487 -0.68592 8266 ft 266 kts 331°
2026-04-25 11:50 50.83114 -0.69976 8048 ft 264 kts 331°
2026-04-25 11:51 50.84731 -0.71363 7826 ft 265 kts 331°
2026-04-25 11:51 50.86365 -0.72712 7605 ft 265 kts 335°
2026-04-25 11:51 50.88116 -0.73582 7387 ft 264 kts 343°
2026-04-25 11:51 50.89877 -0.74414 7170 ft 265 kts 342°
2026-04-25 11:52 50.91638 -0.75294 6964 ft 265 kts 342°
2026-04-25 11:52 50.93391 -0.76145 6731 ft 263 kts 342°
2026-04-25 11:52 50.95143 -0.76976 6513 ft 263 kts 342°
2026-04-25 11:52 50.96891 -0.77813 6277 ft 261 kts 342°
2026-04-25 11:53 50.98638 -0.78661 5931 ft 263 kts 342°
2026-04-25 11:53 51.00369 -0.79487 5659 ft 258 kts 345°
2026-04-25 11:53 51.02110 -0.79734 5417 ft 243 kts
2026-04-25 11:53 51.03734 -0.79388 5211 ft 229 kts
2026-04-25 11:54 51.05290 -0.79025 5021 ft 224 kts
2026-04-25 11:54 51.06833 -0.78676 4829 ft 223 kts
2026-04-25 11:54 51.09895 -0.77844 4462 ft 222 kts 11°
2026-04-25 11:55 51.11418 -0.77371 4286 ft 223 kts 11°
2026-04-25 11:55 51.12949 -0.76905 4098 ft 223 kts 11°
2026-04-25 11:55 51.14459 -0.76372 3905 ft 222 kts 16°
2026-04-25 11:55 51.15934 -0.75668 3730 ft 221 kts 17°
2026-04-25 11:56 51.17406 -0.74993 3545 ft 220 kts 16°
2026-04-25 11:56 51.18761 -0.73946 3348 ft 218 kts 41°
2026-04-25 11:56 51.19718 -0.72087 3180 ft 218 kts 56°
2026-04-25 11:56 51.20566 -0.70085 3018 ft 218 kts 56°
2026-04-25 11:57 51.21398 -0.68099 2997 ft 213 kts 56°
2026-04-25 11:57 51.22211 -0.66158 2984 ft 203 kts 57°
2026-04-25 11:57 51.22934 -0.64314 2984 ft 192 kts 59°
2026-04-25 11:57 51.23640 -0.62516 2988 ft 192 kts 57°
2026-04-25 11:58 51.24353 -0.60727 2984 ft 190 kts 58°
2026-04-25 11:58 51.24822 -0.59546 2984 ft 190 kts 58°
2026-04-25 11:58 51.25614 -0.57870 2979 ft 192 kts 37°
2026-04-25 11:58 51.26884 -0.57419 2994 ft 193 kts 347°
2026-04-25 11:59 51.27925 -0.58666 2985 ft 192 kts 298°
2026-04-25 11:59 51.28254 -0.60729 3006 ft 193 kts 281°
2026-04-25 11:59 51.28513 -0.62835 3000 ft 194 kts 281°
2026-04-25 12:00 51.28544 -0.67116 3003 ft 194 kts 267°
2026-04-25 12:00 51.28512 -0.69270 2999 ft 194 kts 273°
2026-04-25 12:00 51.28765 -0.73590 2985 ft 197 kts 276°
2026-04-25 12:01 51.28899 -0.75748 2990 ft 193 kts 276°
2026-04-25 12:01 51.29025 -0.77891 2987 ft 194 kts 273°
2026-04-25 12:01 51.29028 -0.80038 2994 ft 194 kts 267°
2026-04-25 12:01 51.28956 -0.82184 2985 ft 193 kts 267°
2026-04-25 12:02 51.28805 -0.86464 2978 ft 193 kts 266°
2026-04-25 12:02 51.28721 -0.88679 2618 ft 203 kts 266°
2026-04-25 12:02 51.28641 -0.90881 2492 ft 191 kts 266°
2026-04-25 12:03 51.28566 -0.92995 2496 ft 193 kts 268°
2026-04-25 12:03 51.28489 -0.95134 2491 ft 191 kts 266°
2026-04-25 12:03 51.28413 -0.97267 2486 ft 192 kts 266°
2026-04-25 12:03 51.28330 -0.99414 2485 ft 194 kts 265°
2026-04-25 12:04 51.28248 -1.01561 2490 ft 195 kts 266°
2026-04-25 12:04 51.28170 -1.03695 2496 ft 188 kts 268°
2026-04-25 12:04 51.27950 -1.05750 2459 ft 189 kts 242°
2026-04-25 12:04 51.27184 -1.07450 2503 ft 191 kts 231°
2026-04-25 12:05 51.26221 -1.08918 2499 ft 193 kts 216°
2026-04-25 12:05 51.25000 -1.09656 2496 ft 191 kts 189°
2026-04-25 12:05 51.23693 -1.09539 2479 ft 192 kts 154°
2026-04-25 12:05 51.22842 -1.07983 2501 ft 190 kts 108°
2026-04-25 12:06 51.22626 -1.05922 2501 ft 188 kts 95°
2026-04-25 12:06 51.22515 -1.03844 2506 ft 187 kts 95°
2026-04-25 12:06 51.22425 -1.01774 2486 ft 187 kts 89°
2026-04-25 12:06 51.22512 -0.99698 2489 ft 188 kts 85°
2026-04-25 12:07 51.22459 -0.97631 2507 ft 185 kts 97°
2026-04-25 12:07 51.22294 -0.95680 2477 ft 167 kts 97°
2026-04-25 12:07 51.22302 -0.93920 2474 ft 159 kts 77°
2026-04-25 12:07 51.22731 -0.92280 2482 ft 159 kts 64°
2026-04-25 12:08 51.23242 -0.90644 2253 ft 171 kts 63°
2026-04-25 12:08 51.23797 -0.88958 1982 ft 173 kts 62°
2026-04-25 12:08 51.24352 -0.87292 1704 ft 163 kts 62°
2026-04-25 12:08 51.24865 -0.85758 1449 ft 151 kts 62°
2026-04-25 12:09 51.25344 -0.84318 1190 ft 145 kts 63°
2026-04-25 12:09 51.25793 -0.82910 931 ft 138 kts 63°
2026-04-25 12:09 51.26191 -0.81683 800 ft 117 kts 60°
2026-04-25 12:09 51.26591 -0.80563 626 ft 118 kts 60°
2026-04-25 12:10 51.26996 -0.79415 478 ft 114 kts 61°
2026-04-25 12:10 51.27353 -0.78310 236 ft 106 kts 61°
2026-04-25 12:10 51.27656 -0.77403 230 ft 81 kts 64°
2026-04-25 12:10 51.27819 -0.76976 228 ft 16 kts 13°
2026-04-25 12:11 51.27925 -0.76895 228 ft 15 kts 34°
2026-04-25 12:11 51.27966 -0.76850 230 ft 0 kts 33°
2026-04-25 12:12 51.27969 -0.76847 230 ft 4 kts 33°
2026-04-25 12:12 51.27996 -0.76819 230 ft 9 kts 33°
2026-04-25 12:12 51.28080 -0.76892 225 ft 20 kts 286°
2026-04-25 12:12 51.28129 -0.77140 220 ft 25 kts 287°
2026-04-25 12:13 51.28181 -0.77408 215 ft 20 kts 285°
2026-04-25 12:13 51.28173 -0.77558 216 ft 12 kts 274°
2026-04-25 12:13 51.28145 -0.77648 218 ft 7 kts 208°
2026-04-25 12:13 51.28131 -0.77671 218 ft 1 kts 303°
2026-04-25 12:14 51.28133 -0.77673 218 ft 0 kts 306°